Dewpoint
68 67 65 63 62 66 62 57 56 51 57 52 52 57 59 59 58 56 53 55 54 57 58 61 61 59 52 57 61 58 59 60 58 52 55 53 48 46 47 49 45 49
67 66 67 64 68 66 64 60 57 53 57 59 55 54 58 60 55 57 55 56 55 56 60 56 58 60 59 60 59 60 60 59 58 51 54 52 51 47 46 47 45 45
66 64 61 59 57 57 54 55 59 55 51 50 51 55 54 55 57 59 57 55 53 50 58 60 61 61 57 58 60 59 58 60 57 53 58 53 50 51 49 48 47 43
64 62 60 58 59 57 54 55 57 57 56 54 51 51 52 52 53 53 61 57 56 57 55 57 58 57 58 58 60 58 57 59 58 60 58 56 53 50 50 49 51 45
61 61 60 62 60 57 57 53 51 50 51 59 55 56 56 56 55 52 54 55 59 56 59 57 54 55 59 58 57 56 55 50 56 60 60 56 56 51 49 51 52 48
65 68 65 58 56 54 50 50 49 52 55 50 50 52 53 53 52 56 54 53 51 47 49 50 51 50 53 59 60 60 54 49 52 61 56 56 53 50 47 51 52 49
67 61 59 60 54 52 49 49 51 53 49 50 55 58 55 54 54 58 54 50 49 51 48 55 59 58 55 60 61 61 58 58 56 57 59 54 58 54 49 51 56 54
65 62 60 58 57 57 48 49 48 50 52 53 51 56 56 50 52 50 53 52 50 50 52 51 57 59 51 56 56 58 54 44 45 58 59 58 58 59 56 52 54 56
67 62 55 54 53 57 53 48 47 50 52 52 49 50 51 51 51 52 56 55 55 57 59 54 56 56 58 58 58 58 56 49 45 51 53 53 51 55 50 55 53 55
58 58 57 53 53 54 53 49 50 51 52 53 58 56 52 54 56 62 60 61 56 56 54 59 57 56 54 57 55 56 55 57 55 53 51 45 48 48 48 54 58 55
57 58 60 57 56 54 53 50 50 48 51 49 53 52 55 56 58 61 62 62 55 51 52 58 58 54 56 52 51 52 56 51 53 53 48 49 45 50 51 51 52 53
58 58 58 58 53 51 53 49 50 52 52 50 54 55 56 56 58 60 56 56 51 52 51 52 56 56 61 58 57 53 56 53 57 55 50 46 44 42 46 47 46 50
53 52 53 53 50 52 52 54 51 49 51 54 57 57 55 52 50 58 55 51 54 51 50 55 53 50 62 57 57 57 56 56 54 54 54 44 46 44 46 52 48 46
54 51 51 57 58 59 57 51 50 54 55 57 59 59 55 49 49 47 49 52 52 51 53 61 60 57 58 60 56 55 56 56 55 55 55 51 48 53 48 50 53 50
57 54 54 58 61 60 59 58 54 54 58 58 58 57 54 55 54 48 51 52 53 55 57 58 60 57 57 54 55 55 58 60 60 56 55 54 53 48 48 51 51 49
59 57 56 56 58 57 61 61 57 58 55 56 58 59 52 63 58 56 54 51 52 54 53 52 53 50 58 56 55 59 60 59 57 58 58 58 58 56 50 54 50 49
59 58 58 61 59 59 60 61 61 57 59 59 58 58 55 57 62 55 59 53 53 51 51 53 51 54 58 57 56 55 60 62 59 60 60 59 58 61 57 55 49 52
57 59 59 61 60 61 61 61 59 58 60 59 58 57 60 58 58 58 61 60 58 58 55 54 56 59 62 58 58 58 57 62 60 57 55 55 54 52 51 50 53 51
62 59 60 59 60 61 60 61 62 58 59 58 59 58 59 59 62 59 61 62 59 62 60 55 56 60 63 60 62 62 61 59 59 57 56 54 55 54 56 55 57 56
61 60 59 60 60 60 59 58 58 59 56 56 59 61 62 60 57 60 60 60 60 60 61 58 57 60 63 61 61 62 61 60 59 59 57 56 60 57 53 56 58 58
60 60 59 59 60 60 60 58 58 58 57 58 56 59 61 61 60 58 60 61 61 59 57 55 55 63 63 61 64 64 63 60 59 56 56 56 55 57 59 58 55 51
60 60 59 60 60 60 59 59 59 60 59 61 59 56 54 59 61 61 59 60 61 59 60 57 59 63 62 63 64 64 62 60 59 60 62 61 59 58 61 60 58 56
59 59 58 59 59 57 58 58 58 59 60 60 59 57 57 57 59 60 61 59 61 60 60 60 57 63 62 61 64 63 62 60 60 60 61 59 57 57 61 59 56 58
60 60 59 58 58 59 56 59 58 60 60 60 60 59 59 56 60 60 61 62 58 59 58 57 57 63 61 60 60 62 62 59 61 61 60 61 60 58 61 63 60 53
59 60 59 58 57 58 57 58 59 59 59 62 61 60 60 61 58 59 61 62 61 61 56 58 61 64 59 60 60 61 62 61 61 61 59 60 59 60 61 58 58 58
58 60 59 59 58 60 60 60 61 59 61 60 60 57 56 57 60 58 60 61 62 62 57 60 61 61 64 58 59 60 62 62 61 60 59 60 61 61 58 58 57 60